Hourly Weather Goenka

Today, 17 May, Monday

Time Temperature Precipitation Wind Pressure Humidity
00:00 +13°C° 0.1 mm 3 mps 740 mmHg 88%
01:00 +12°C° 0.1 mm 3 mps 741 mmHg 91%
02:00 +12°C° 0 mm 3 mps 740 mmHg 93%
03:00 +12°C° 0.1 mm 3 mps 740 mmHg 94%
04:00 +13°C° 0.1 mm 2 mps 740 mmHg 94%
05:00 +13°C° 0.1 mm 2 mps 739 mmHg 94%
06:00 +15°C° 0 mm 2 mps 739 mmHg 89%
07:00 +16°C° 0 mm 3 mps 739 mmHg 83%
08:00 +18°C° 0 mm 3 mps 739 mmHg 78%
09:00 +18°C° 0.3 mm 3 mps 738 mmHg 80%
10:00 +18°C° 0.3 mm 3 mps 738 mmHg 81%
11:00 +18°C° 0.3 mm 3 mps 738 mmHg 83%
12:00 +18°C° 0.4 mm 2 mps 737 mmHg 83%
13:00 +19°C° 0.4 mm 2 mps 737 mmHg 84%
14:00 +19°C° 0.4 mm 2 mps 736 mmHg 85%
15:00 +19°C° 1 mm 3 mps 736 mmHg 87%
16:00 +18°C° 1 mm 3 mps 735 mmHg 88%
17:00 +18°C° 1 mm 4 mps 735 mmHg 90%
18:00 +17°C° 1.3 mm 4 mps 735 mmHg 92%
19:00 +15°C° 1.3 mm 4 mps 735 mmHg 94%
20:00 +14°C° 1.3 mm 4 mps 735 mmHg 96%
21:00 +14°C° 1.7 mm 3 mps 735 mmHg 97%
22:00 +14°C° 1.7 mm 3 mps 735 mmHg 98%
23:00 +14°C° 1.7 mm 2 mps 735 mmHg 98%

Tomorrow, 18 May, Tuesday

Time Temperature Precipitation Wind Pressure Humidity
00:00 +14°C° 0.5 mm 2 mps 735 mmHg 98%
01:00 +14°C° 0.5 mm 2 mps 734 mmHg 98%
02:00 +14°C° 0.5 mm 2 mps 734 mmHg 98%
03:00 +15°C° 0.3 mm 2 mps 734 mmHg 98%
04:00 +15°C° 0.3 mm 2 mps 734 mmHg 98%
05:00 +15°C° 0.3 mm 2 mps 734 mmHg 98%
06:00 +15°C° 0.1 mm 2 mps 734 mmHg 98%
07:00 +16°C° 0.1 mm 2 mps 734 mmHg 97%
08:00 +16°C° 0.1 mm 3 mps 734 mmHg 97%
09:00 +16°C° 0 mm 3 mps 735 mmHg 93%
10:00 +17°C° 0 mm 4 mps 735 mmHg 89%
11:00 +18°C° 0 mm 4 mps 735 mmHg 85%
12:00 +18°C° 0.1 mm 4 mps 735 mmHg 82%
13:00 +19°C° 0.1 mm 4 mps 735 mmHg 79%
14:00 +19°C° 0.1 mm 4 mps 735 mmHg 76%
15:00 +19°C° 0.1 mm 3 mps 735 mmHg 77%
16:00 +19°C° 0.1 mm 3 mps 735 mmHg 78%
17:00 +19°C° 0.1 mm 2 mps 735 mmHg 79%
18:00 +18°C° 0.4 mm 2 mps 735 mmHg 82%
19:00 +18°C° 0.4 mm 1 mps 735 mmHg 86%
20:00 +16°C° 0.4 mm 1 mps 735 mmHg 89%
21:00 +15°C° 0.3 mm 1 mps 735 mmHg 91%
22:00 +15°C° 0.3 mm 1 mps 735 mmHg 92%
23:00 +15°C° 0.3 mm 1 mps 734 mmHg 93%

Day after tomorrow, 19 May, Wednesday

Time Temperature Precipitation Wind Pressure Humidity
00:00 +14°C° 0.1 mm 1 mps 735 mmHg 94%
01:00 +14°C° 0.1 mm 1 mps 735 mmHg 94%
02:00 +13°C° 0.1 mm 1 mps 735 mmHg 95%
03:00 +13°C° 0.2 mm 2 mps 735 mmHg 95%
04:00 +13°C° 0.2 mm 2 mps 735 mmHg 96%
05:00 +13°C° 0.2 mm 2 mps 735 mmHg 96%
06:00 +14°C° 0.3 mm 2 mps 735 mmHg 94%
07:00 +14°C° 0.3 mm 3 mps 735 mmHg 92%
08:00 +16°C° 0.3 mm 3 mps 736 mmHg 90%
09:00 +17°C° 0.1 mm 3 mps 736 mmHg 87%
10:00 +17°C° 0.1 mm 3 mps 736 mmHg 85%
11:00 +18°C° 0.1 mm 4 mps 736 mmHg 82%
12:00 +18°C° 0.3 mm 4 mps 736 mmHg 79%
13:00 +19°C° 0.3 mm 3 mps 736 mmHg 76%
14:00 +19°C° 0.3 mm 3 mps 736 mmHg 73%
15:00 +19°C° 0.5 mm 3 mps 736 mmHg 75%
16:00 +19°C° 0.5 mm 3 mps 737 mmHg 76%
17:00 +19°C° 0.5 mm 2 mps 737 mmHg 78%
18:00 +18°C° 0.6 mm 2 mps 737 mmHg 83%
19:00 +16°C° 0.6 mm 2 mps 737 mmHg 88%
20:00 +15°C° 0.6 mm 2 mps 737 mmHg 93%
21:00 +14°C° 0.1 mm 2 mps 737 mmHg 94%
22:00 +14°C° 0.1 mm 2 mps 737 mmHg 94%
23:00 +14°C° 0.1 mm 2 mps 737 mmHg 95%

20 May, Thursday

Time Temperature Precipitation Wind Pressure Humidity
00:00 +14°C° 0.1 mm 2 mps 736 mmHg 96%
01:00 +14°C° 0.1 mm 2 mps 736 mmHg 96%
02:00 +14°C° 0.1 mm 2 mps 736 mmHg 96%
03:00 +13°C° 0.5 mm 3 mps 736 mmHg 97%
04:00 +13°C° 0.5 mm 3 mps 735 mmHg 97%
05:00 +13°C° 0.5 mm 3 mps 735 mmHg 97%
06:00 +13°C° 0.4 mm 3 mps 735 mmHg 97%
07:00 +14°C° 0.4 mm 2 mps 735 mmHg 96%
08:00 +14°C° 0.4 mm 1 mps 735 mmHg 95%
09:00 +15°C° 0.3 mm 1 mps 734 mmHg 89%
10:00 +16°C° 0.3 mm 1 mps 734 mmHg 82%
11:00 +18°C° 0.3 mm 1 mps 734 mmHg 75%
12:00 +17°C° 0.5 mm 2 mps 734 mmHg 75%
13:00 +17°C° 0.5 mm 2 mps 733 mmHg 75%
14:00 +17°C° 0.5 mm 2 mps 733 mmHg 76%
15:00 +17°C° 0.7 mm 2 mps 733 mmHg 78%
16:00 +17°C° 0.7 mm 3 mps 732 mmHg 81%
17:00 +16°C° 0.7 mm 3 mps 732 mmHg 84%
18:00 +14°C° 0.8 mm 3 mps 732 mmHg 88%
19:00 +12°C° 0.8 mm 3 mps 732 mmHg 92%
20:00 +11°C° 0.8 mm 3 mps 732 mmHg 96%
21:00 +10°C° 1.1 mm 3 mps 732 mmHg 96%
22:00 +10°C° 1.1 mm 4 mps 732 mmHg 96%
23:00 +8°C° 1.1 mm 4 mps 733 mmHg 96%

21 May, Friday

Time Temperature Precipitation Wind Pressure Humidity
00:00 +8°C° 0.1 mm 4 mps 733 mmHg 95%
01:00 +8°C° 0.1 mm 5 mps 733 mmHg 94%
02:00 +8°C° 0.1 mm 5 mps 733 mmHg 94%
03:00 +7°C° 0.4 mm 6 mps 734 mmHg 94%
04:00 +5°C° 0.4 mm 7 mps 734 mmHg 94%
05:00 +4°C° 0.4 mm 7 mps 735 mmHg 94%
06:00 +4°C° 1 mm 7 mps 735 mmHg 94%
07:00 +4°C° 1 mm 8 mps 735 mmHg 94%
08:00 +5°C° 1 mm 8 mps 736 mmHg 94%
09:00 +5°C° 0.6 mm 8 mps 737 mmHg 91%
10:00 +6°C° 0.6 mm 8 mps 737 mmHg 89%
11:00 +7°C° 0.6 mm 8 mps 738 mmHg 86%
12:00 +10°C° 0.1 mm 8 mps 739 mmHg 79%
13:00 +11°C° 0.1 mm 8 mps 739 mmHg 72%
14:00 +13°C° 0.1 mm 8 mps 740 mmHg 65%
15:00 +12°C° 0 mm 8 mps 741 mmHg 65%
16:00 +12°C° 0 mm 7 mps 741 mmHg 65%
17:00 +11°C° 0 mm 6 mps 741 mmHg 65%
18:00 +10°C° 0 mm 6 mps 742 mmHg 68%
19:00 +9°C° 0 mm 5 mps 742 mmHg 71%
20:00 +8°C° 0 mm 5 mps 743 mmHg 74%
21:00 +7°C° 0 mm 4 mps 743 mmHg 78%
22:00 +5°C° 0 mm 4 mps 743 mmHg 82%
23:00 +4°C° 0 mm 3 mps 744 mmHg 86%

22 May, Saturday

Time Temperature Precipitation Wind Pressure Humidity
00:00 +4°C° 0 mm 3 mps 744 mmHg 88%
01:00 +3°C° 0 mm 3 mps 744 mmHg 90%
02:00 +3°C° 0 mm 3 mps 744 mmHg 92%
03:00 +3°C° 0 mm 3 mps 744 mmHg 90%
04:00 +4°C° 0 mm 3 mps 744 mmHg 88%
05:00 +5°C° 0 mm 2 mps 744 mmHg 85%
06:00 +7°C° 0 mm 3 mps 744 mmHg 80%
07:00 +7°C° 0 mm 4 mps 745 mmHg 75%
08:00 +10°C° 0 mm 4 mps 745 mmHg 69%
09:00 +11°C° 0.1 mm 4 mps 745 mmHg 65%
10:00 +12°C° 0.1 mm 4 mps 745 mmHg 60%
11:00 +13°C° 0.1 mm 5 mps 745 mmHg 55%
12:00 +14°C° 0 mm 4 mps 745 mmHg 53%
13:00 +14°C° 0 mm 4 mps 745 mmHg 51%
14:00 +15°C° 0 mm 4 mps 745 mmHg 48%
15:00 +15°C° 0 mm 4 mps 746 mmHg 53%
16:00 +16°C° 0 mm 3 mps 746 mmHg 57%
17:00 +16°C° 0 mm 3 mps 746 mmHg 61%
18:00 +14°C° 0 mm 2 mps 746 mmHg 65%
19:00 +13°C° 0 mm 1 mps 746 mmHg 69%
20:00 +11°C° 0 mm 0 mps 746 mmHg 73%
21:00 +12°C° 0 mm 1 mps 746 mmHg 73%
22:00 +12°C° 0 mm 1 mps 746 mmHg 73%
23:00 +12°C° 0 mm 2 mps 747 mmHg 73%
Show more